User: anonymous
Location: Lincolnton
(35.4660°N, 81.2500°W)
Time: 08:10:35
(UTC-04:00)
Language:

HST - Orbit

View from above orbital plane
View from above orbital plane
View from above satellite
View from above satellite

Ground track
Ground track

The orbit data is extracted from the following two-line orbital elements,

1 20580U 90037B   14242.16668659  .00002062  00000-0  12753-3 0   996
2 20580 028.4702 270.7333 0003115 002.5308 054.1015 15.05662658135877
Epoch (UTC): 30 August 2014 04:00:01
Eccentricity: 0.0003115
inclination: 28.4702°
perigee height: 547 km
apogee height: 551 km
right ascension of ascending node: 270.7333°
argument of perigee: 2.5308°
revolutions per day: 15.05662658
mean anomaly at epoch: 54.1015°
orbit number at epoch: 13587

The dashed part of the orbit path shows where the satellite is in the earth's shadow,  

DLR